Fort Lewis, WA

4:06 AM PDT on June 24, 2017 (GMT -0700)
Gray Army Air Field

Weather History for KGRF - December, 2012

Change the Weather History Date:

Sunday, December 30, 2012

  Actual Average Record
Temperature  
Mean Temperature 34 °F -  
Max Temperature 41 °F 43 °F 51 °F (1996)
Min Temperature 28 °F 33 °F 19 °F (2010)
Degree Days  
Heating Degree Days 30    
Moisture  
Dew Point 33 °F    
Average Humidity 97    
Maximum Humidity 100    
Minimum Humidity 85    
Precipitation  
Precipitation 0.00 in - - ()
Sea Level Pressure  
Sea Level Pressure 30.27 in    
Wind  
Wind Speed 2 mph (SE)    
Max Wind Speed 5 mph    
Max Gust Speed -    
Visibility 4 miles    
Events Fog , Rain    
Averages and records for this station are not official NWS values.
T = Trace of Precipitation, MM = Missing Value Source: NWS Daily Summary

Daily Weather History Graph

Daily Weather History Graph

Search for Another Location

Airport or City:

Trip Planner

Search our weather history database for the weather conditions in past years. The results will help you decide how hot, cold, wet, or windy it might be!

Date:

Astronomy

Dec. 30, 2012 Rise Set
Actual Time 7:56 AM PST 4:30 PM PST
Civil Twilight 7:21 AM PST 5:05 PM PST
Nautical Twilight 6:42 AM PST 5:44 PM PST
Astronomical Twilight 6:05 AM PST 6:21 PM PST
Moon 7:17 PM PST (12/30) 8:58 AM PST (12/30)
Length of Visible Light 9h 44m
Length of Day
8h 33m
Waning Gibbous, 95% of the Moon is Illuminated
Dec 30
Waning Gibbous
Jan 4
Last Quarter
Jan 11
New
Jan 18
First Quarter
Jan 26
Full

Hourly Weather History & Observations

Time (PST) Temp. Windchill Dew Point Humidity Pressure Visibility Wind Dir Wind Speed Gust Speed Precip Events Conditions
12:33 AM 37.4 °F 34.9 °F 37.4 °F 100% 30.22 in 10.0 mi SE 3.5 mph - N/A   Overcast
12:53 AM 37.4 °F - 37.4 °F 100% 30.22 in 10.0 mi SSE 2.3 mph - N/A   Overcast
12:58 AM 37.9 °F - 37.8 °F 99% 30.24 in 10.0 mi SE 2.3 mph - N/A   Overcast
1:03 AM 37.4 °F - 37.4 °F 100% 30.22 in 10.0 mi SE 2.3 mph - N/A   Overcast
1:33 AM 37.4 °F - 37.4 °F 100% 30.22 in 10.0 mi SSW 2.3 mph - N/A   Overcast
1:43 AM 37.4 °F - 37.4 °F 100% 30.22 in 10.0 mi SW 2.3 mph - N/A   Overcast
1:53 AM 37.4 °F - 37.4 °F 100% 30.22 in 10.0 mi Calm Calm - N/A   Overcast
1:58 AM 37.8 °F - 37.6 °F 99% 30.24 in 10.0 mi Calm Calm - N/A   Overcast
2:13 AM 37.4 °F - 37.4 °F 100% 30.23 in 9.0 mi East 1.2 mph - N/A   Overcast
2:33 AM 35.6 °F - 35.6 °F 100% 30.24 in 5.0 mi SSE 1.2 mph - N/A   Overcast
2:58 AM 36.7 °F - 36.5 °F 99% 30.26 in 6.0 mi North - - N/A   Overcast
3:03 AM 37.4 °F - 37.4 °F 100% 30.24 in 7.0 mi NNE 1.2 mph - N/A   Overcast
3:58 AM 36.9 °F - 36.5 °F 99% 30.27 in 10.0 mi SW 1.2 mph - N/A   Overcast
4:58 AM 36.7 °F - 36.5 °F 99% 30.28 in 9.0 mi SE 1.2 mph - N/A   Overcast
5:03 AM 37.4 °F - 35.6 °F 93% 30.26 in 10.0 mi SE 2.3 mph - N/A   Overcast
5:04 AM 37.4 °F - 35.6 °F 93% 30.26 in 10.0 mi ESE 2.3 mph - N/A   Overcast
5:14 AM 37.4 °F - 37.4 °F 100% 30.26 in 9.0 mi ESE 1.2 mph - N/A   Overcast
5:44 AM 35.6 °F - 35.6 °F 100% 30.26 in 9.0 mi ESE 2.3 mph - N/A   Overcast
5:54 AM 35.6 °F - 35.6 °F 100% 30.26 in 8.0 mi South 2.3 mph - N/A   Overcast
5:58 AM 36.3 °F - 36.1 °F 99% 30.28 in 9.0 mi SE 2.3 mph - N/A   Overcast
6:48 AM 35.6 °F - 35.6 °F 100% 30.26 in 10.0 mi SSE 1.2 mph - N/A   Overcast
6:58 AM 36.5 °F - 36.3 °F 99% 30.29 in 10.0 mi South 1.2 mph - N/A   Overcast
7:58 AM 36.3 °F 33.7 °F 36.1 °F 99% 30.29 in 8.0 mi SSE 3.5 mph - N/A   Overcast
8:58 AM 37.0 °F 33.3 °F 36.7 °F 99% 30.30 in 10.0 mi SE 4.6 mph - N/A   Overcast
9:58 AM 37.9 °F - 37.8 °F 99% 30.32 in 10.0 mi Calm Calm - N/A   Overcast
10:48 AM 39.2 °F - 37.4 °F 93% 30.31 in 10.0 mi SW 2.3 mph - N/A   Overcast
10:58 AM 39.0 °F - 37.6 °F 95% 30.33 in 10.0 mi SW 2.3 mph - N/A   Overcast
11:58 AM 40.1 °F - 36.0 °F 85% 30.31 in 10.0 mi North 1.2 mph - N/A   Overcast
12:58 PM 40.1 °F - 36.1 °F 86% 30.30 in 10.0 mi SW 2.3 mph - N/A   Overcast
1:58 PM 40.5 °F 37.3 °F 37.0 °F 88% 30.30 in 10.0 mi NW 4.6 mph - N/A   Overcast
2:18 PM 41.0 °F 39.0 °F 37.4 °F 87% 30.28 in 10.0 mi NW 3.5 mph - N/A   Overcast
2:58 PM 40.6 °F 37.5 °F 37.6 °F 89% 30.30 in 10.0 mi NNW 4.6 mph - N/A   Overcast
3:58 PM 40.1 °F - 37.0 °F 89% 30.29 in 10.0 mi NNW 2.3 mph - N/A   Overcast
4:58 PM 38.7 °F - 36.3 °F 91% 30.29 in 10.0 mi North 2.3 mph - N/A   Scattered Clouds
5:53 PM 33.8 °F - 32.0 °F 93% 30.26 in 1.8 mi SE 2.3 mph - N/A   Clear
5:58 PM 34.0 °F - 33.1 °F 96% 30.28 in 0.8 mi ESE 2.3 mph - N/A   Clear
6:03 PM 33.8 °F - 32.0 °F 93% 30.26 in 0.8 mi East 2.3 mph - N/A   Clear
6:08 PM 33.8 °F - 33.8 °F 100% 30.26 in 1.5 mi ENE 2.3 mph - N/A   Clear
6:13 PM 35.6 °F - 33.8 °F 93% 30.26 in 3.0 mi East 2.3 mph - N/A   Clear
6:18 PM 32.0 °F - 32.0 °F 100% 30.25 in 1.8 mi Calm Calm - N/A   Clear
6:23 PM 32.0 °F - 32.0 °F 100% 30.25 in 1.0 mi Calm Calm - N/A   Clear
6:28 PM 32.0 °F - 32.0 °F 100% 30.26 in 0.8 mi SSE 1.2 mph - N/A   Clear
6:33 PM 32.0 °F - 32.0 °F 100% 30.26 in 0.8 mi SSE 2.3 mph - N/A   Clear
6:38 PM 32.0 °F 28.7 °F 32.0 °F 100% 30.25 in 0.5 mi SE 3.5 mph - N/A Fog Fog
6:43 PM 32.0 °F 28.7 °F 32.0 °F 100% 30.25 in 0.2 mi East 3.5 mph - N/A Fog Fog
6:48 PM 32.0 °F - 32.0 °F 100% 30.25 in 0.5 mi SE 2.3 mph - N/A Fog Fog
6:58 PM 32.2 °F - 32.0 °F 99% 30.27 in 0.2 mi South 2.3 mph - N/A Fog Light Freezing Fog
7:08 PM 32.0 °F - 32.0 °F 100% 30.25 in 0.5 mi SW 1.2 mph - N/A Fog Light Freezing Fog
7:23 PM 32.0 °F - 32.0 °F 100% 30.26 in 0.5 mi SW 2.3 mph - N/A Fog Fog
7:28 PM 32.0 °F - 32.0 °F 100% 30.26 in 0.5 mi Calm Calm - N/A Fog Fog
7:33 PM 32.0 °F - 32.0 °F 100% 30.26 in 0.2 mi SE 2.3 mph - N/A Fog Fog
7:48 PM 32.0 °F 27.5 °F 32.0 °F 100% 30.26 in 0.5 mi SSE 4.6 mph - N/A Fog Light Freezing Fog
7:58 PM 29.8 °F 24.9 °F 29.5 °F 99% 30.28 in 0.5 mi ESE 4.6 mph - N/A Fog Light Freezing Fog
8:08 PM 30.2 °F - 30.2 °F 100% 30.26 in 0.5 mi SE 1.2 mph - N/A Fog Light Freezing Fog
8:18 PM 30.2 °F 26.7 °F 30.2 °F 100% 30.26 in 0.2 mi SSE 3.5 mph - N/A Fog Light Freezing Fog
8:23 PM 30.2 °F - 30.2 °F 100% 30.26 in 0.2 mi SSE 2.3 mph - N/A Fog Light Freezing Fog
8:28 PM 30.2 °F 26.7 °F 30.2 °F 100% 30.26 in 0.2 mi ESE 3.5 mph - N/A Fog Light Freezing Fog
8:35 PM 30.2 °F 26.7 °F 30.2 °F 100% 30.26 in 0.2 mi East 3.5 mph - N/A Fog Light Freezing Fog
8:36 PM 30.2 °F 26.7 °F 30.2 °F 100% 30.26 in 0.2 mi ESE 3.5 mph - N/A Fog , Rain Light Freezing Rain
8:58 PM 28.4 °F - 28.4 °F 100% 30.28 in 0.2 mi South 2.3 mph - 0.00 in Fog , Rain Light Freezing Rain
9:01 PM 30.2 °F - 28.4 °F 93% 30.27 in 0.2 mi SSW 1.2 mph - N/A Fog Light Freezing Fog
9:58 PM 28.9 °F - 28.6 °F 99% 30.30 in 0.2 mi South 2.3 mph - 0.00 in Fog Light Freezing Fog
9:59 PM 28.4 °F - 28.4 °F 100% 30.28 in 0.2 mi SSE 2.3 mph - N/A Fog Light Freezing Fog
10:01 PM 28.4 °F 24.6 °F 28.4 °F 100% 30.28 in 0.2 mi SSE 3.5 mph - N/A Fog , Rain Light Freezing Rain
10:31 PM 30.2 °F 25.4 °F 30.2 °F 100% 30.29 in 0.2 mi SSE 4.6 mph - N/A Fog , Rain Light Freezing Rain
10:41 PM 32.0 °F 27.5 °F 30.2 °F 93% 30.29 in 0.5 mi SE 4.6 mph - N/A Fog , Rain Light Freezing Rain
10:56 PM 32.0 °F - 32.0 °F 100% 30.28 in 0.2 mi SE 2.3 mph - N/A Fog , Rain Light Freezing Rain
10:58 PM 30.6 °F - 30.4 °F 99% 30.30 in 0.2 mi SE 2.3 mph - 0.00 in Fog , Rain Light Freezing Rain
11:03 PM 32.0 °F - 32.0 °F 100% 30.28 in 0.2 mi SE 2.3 mph - N/A Fog , Rain Light Freezing Rain
11:28 PM 30.2 °F 25.4 °F 30.2 °F 100% 30.28 in 0.5 mi ESE 4.6 mph - N/A Fog , Rain Light Freezing Rain
11:33 PM 30.2 °F 26.7 °F 28.4 °F 93% 30.28 in 0.8 mi SE 3.5 mph - N/A Rain Light Freezing Rain
11:38 PM 30.2 °F 26.7 °F 28.4 °F 93% 30.28 in 1.2 mi SE 3.5 mph - N/A Rain Light Freezing Rain
11:43 PM 30.2 °F 25.4 °F 28.4 °F 93% 30.28 in 3.0 mi East 4.6 mph - N/A Rain Light Freezing Rain
11:48 PM 30.2 °F - 30.2 °F 100% 30.28 in 2.0 mi SE 2.3 mph - N/A Rain Light Freezing Rain
11:52 PM 30.2 °F - 30.2 °F 100% 30.28 in 1.0 mi SSE 2.3 mph - N/A   Overcast
11:57 PM 30.2 °F 25.4 °F 28.4 °F 93% 30.28 in 0.5 mi SE 4.6 mph - N/A Fog Light Freezing Fog
11:58 PM 29.5 °F 24.5 °F 29.3 °F 99% 30.30 in 0.5 mi ESE 4.6 mph - 0.00 in Fog Light Freezing Fog